Regional Weather Roundup
Issued by NWS

Home | Current Version | Previous Version | Graphics & Text | Print | Product List | Glossary Off
Versions: 1 2 3 4 5 6 7 8 9 10 11 12 13 14 15 16 17 18 19 20 21 22 23 24 25 26 27

000
ASUS43 KDMX 312307
RWRIA

WEATHER ROUNDUP FOR IOWA
NATIONAL WEATHER SERVICE DES MOINES IA
600 PM CDT FRI OCT 31 2014

NOTE: "FAIR" INDICATES FEW OR NO CLOUDS BELOW 12,000 FEET WITH NO
SIGNIFICANT WEATHER AND/OR OBSTRUCTIONS TO VISIBILITY.

* - THESE STATIONS ARE NOT NWS STATIONS...THUS NOT UNDER NWS
QUALITY CONTROL.  THEY ALSO DO NOT REPORT WEATHER SUCH
AS PRECIPITATION OR FOG.

IAZ001>003-012>014-020>022-031>034-043>046-010000-
   NORTHWEST IOWA

CITY           SKY/WX    TMP DP  RH WIND       PRES   REMARKS
CARROLL *      CLEAR     37  18  44 N7        30.47R WCI  32
CHEROKEE *     CLEAR     37  18  44 CALM      30.47S
DENISON *      CLEAR     37  16  41 NE5       30.45S WCI  34
LE MARS *      CLEAR     39  16  38 CALM      30.48S
ORANGE CITY *  CLEAR     39  12  33 CALM      30.47S
SHELDON *      CLEAR     36  16  44 E5        30.46S WCI  32
SIOUX CITY     CLEAR     40  17  39 SE3       30.48F
SPENCER        CLEAR     37  18  46 N5        30.47S WCI  33
STORM LAKE *   CLEAR     36  16  44 N5        30.47S WCI  32
$$

IAZ055>058-069>071-079>083-090>094-010000-
   SOUTHWEST IOWA

CITY           SKY/WX    TMP DP  RH WIND       PRES   REMARKS
ATLANTIC *     CLEAR     39  16  38 N8        30.46S WCI  34
AUDUBON *      CLEAR     37  12  35 N6        30.47S WCI  33
CLARINDA *     CLEAR     41  18  38 N7        30.48S
COUNCIL BLFS * CLEAR     39  18  41 N5        30.45F
CRESTON *      CLEAR     37  18  44 N8        30.45S WCI  31
HARLAN  *      CLEAR     39  18  41 N7        30.50S WCI  34
LAMONI         CLEAR     39  19  44 N8        30.44S WCI  33
RED OAK *      CLEAR     39  18  41 N6        30.47R WCI  35
SHENANDOAH *   CLEAR     41  18  38 N6        30.47F
$$

IAZ047>049-059>061-072>074-084-010000-
   CENTRAL IOWA

CITY           SKY/WX    TMP DP  RH WIND       PRES   REMARKS
AMES           CLEAR     38  18  44 N8        30.47R WCI  32
ANKENY *       CLEAR     39  18  41 N10       30.47R WCI  32
CHARITON *     CLEAR     39  19  45 NW8       30.44S WCI  34
DES MOINES     PTCLDY    41  17  38 N9        30.46S
GRINNELL*      CLEAR     37  18  44 N9        30.44R WCI  31
KNOXVILLE *    CLEAR     41  16  36 N9G15     30.43R
MARSHALLTOWN   CLEAR     37  18  46 N9        30.45R WCI  30
PELLA *        CLEAR     39  18  41 N9        30.45S WCI  33
PERRY *          N/A     37  19  48 N6        30.47S WCI  33
$$

IAZ004>006-015-016-023>025-035-036-010000-
   NORTH CENTRAL IOWA

CITY           SKY/WX    TMP DP  RH WIND       PRES   REMARKS
ALGONA *       CLEAR     36  18  48 N6        30.48S WCI  31
CLARION *      CLEAR     36  18  48 N7G13     30.47S WCI  30
ESTHERVILLE    CLEAR     34  15  46 NE7       30.47S WCI  28
FORT DODGE *   CLEAR     37  16  41 N5        30.48S WCI  34
MASON CITY     CLEAR     34  18  52 N8        30.48R WCI  27
FOREST CITY *  CLEAR     34  21  60 N6        30.47S WCI  29
IOWA FALLS *     N/A     37  18  44 N7        30.47R WCI  32
$$

IAZ007>011-017>019-026>030-037>042-050>054-066-010000-
   NORTHEAST IOWA

CITY           SKY/WX    TMP DP  RH WIND       PRES   REMARKS
CEDAR RAPIDS   CLEAR     38  19  46 N15       30.42R WCI  29
CHARLES CITY * PTCLDY    36  18  48 N7        30.46S WCI  30
CLINTON *      CLEAR     36  18  48 N10       30.42R WCI  28
DECORAH *      CLEAR     36  18  48 N7G14     30.43R WCI  30
DUBUQUE        CLEAR     36  17  46 N15G24    30.39R WCI  27
MONTICELLO *   CLEAR     37  19  48 N12G18    30.41S WCI  30
OELWEIN *      CLEAR     36  19  51 N9        30.44S WCI  29
WATERLOO       CLEAR     37  18  46 N13       30.44S WCI  29
$$

IAZ064-065-067-068-078-010000-
   EAST CENTRAL IOWA

CITY           SKY/WX    TMP DP  RH WIND       PRES   REMARKS
DAVENPORT      CLEAR     38  17  42 N14       30.40R WCI  30
IOWA CITY      CLEAR     40  19  43 N16G22    30.44R WCI  31
MT. PLEASANT * CLEAR     39  19  45 N12G18    30.40S WCI  32
MUSCATINE *    CLEAR     41  18  38 N14       30.41S
QUAD CITIES    CLEAR     40  18  41 N17G24    30.38R WCI  31
$$

IAZ062-063-075>077-085>089-095>099-010000-
   SOUTHEAST IOWA

CITY           SKY/WX    TMP DP  RH WIND       PRES   REMARKS
BURLINGTON     CLEAR     40  21  46 N14G23    30.39R WCI  32
FAIRFIELD *    CLEAR     39  18  41 N9G16     30.42R WCI  33
FORT MADISON * CLEAR     43  21  42 N14G20    30.40R
KEOKUK *       CLEAR     41  21  45 N10G18    30.39R
OSKALOOSA *      N/A     39  18  41 N10       30.43R WCI  32
CENTERVILLE *  CLEAR     39  18  41 NW8       30.43S WCI  34
OTTUMWA        CLEAR     39  18  42 N12       30.42S WCI  32
WASHINGTON *   CLEAR     39  19  45 N13       30.41S WCI  32
$$

ABBREVIATIONS USED IN REMARKS
   TC - TEMPERATURES IN CELSIUS
  WCI - WIND CHILL INDEX
   HX - HEAT INDEX
  VSB - VISIBILITY
$$




USA.gov is the U.S. government's official web portal to all federal, state and local government web resources and services.